Location: Newark
(35.2672°N, 80.7344°W)
Time: 22:18:06
(UTC+00:00)

Transit 2A - All Passes

Search period start: 17 January 2020 00:00
Search period end: 27 January 2020 00:00
Orbit: 601 x 957 km, 66.7° (Epoch: 17 January)

Date Brightness Start Highest point End Pass type
(mag) Time Alt. Az. Time Alt. Az. Time Alt. Az.
17 Jan - 02:13:30 10° S 02:17:33 31° ESE 02:21:26 10° NE night (unlit)
17 Jan - 03:57:15 10° WSW 04:00:40 21° NW 04:04:01 10° N night (unlit)
17 Jan - 11:02:49 10° NNE 11:05:39 15° NE 11:08:35 10° E visible
17 Jan - 12:44:16 10° NW 12:49:03 62° WSW 12:54:21 10° SSE daylight
18 Jan - 01:40:17 10° SSE 01:43:33 19° ESE 01:46:43 10° ENE night (unlit)
18 Jan - 03:22:23 10° WSW 03:26:26 32° WNW 03:30:22 10° N night (unlit)
18 Jan - 10:30:44 10° NE 10:31:16 10° NE 10:31:49 10° NE visible
18 Jan - 12:10:06 10° NNW 12:14:57 85° ENE 12:20:20 10° SSE daylight
19 Jan - 01:07:58 10° SE 01:09:36 12° ESE 01:11:12 10° E night (unlit)
19 Jan - 02:47:50 10° SW 02:52:15 51° WNW 02:56:30 10° NNE night (unlit)
19 Jan - 11:36:05 10° NNW 11:40:50 55° ENE 11:46:04 10° SE visible
19 Jan - 13:20:46 10° WNW 13:23:38 15° WSW 13:26:38 10° SW daylight
20 Jan - 02:13:35 10° SSW 02:18:08 85° WNW 02:22:30 10° NNE night (unlit)
20 Jan - 11:02:12 10° N 11:06:40 36° ENE 11:11:31 10° SE visible
20 Jan - 12:45:42 10° WNW 12:49:38 24° WSW 12:53:52 10° SSW daylight
21 Jan - 01:39:34 10° SSW 01:44:02 58° ESE 01:48:19 10° NE night (unlit)
21 Jan - 03:25:30 10° WNW 03:27:29 13° NW 03:29:27 10° NNW night (unlit)
21 Jan - 10:28:28 10° N 10:32:26 25° NE 10:36:42 10° ESE visible
21 Jan - 12:11:05 10° NW 12:15:36 36° WSW 12:20:32 10° S daylight
22 Jan - 01:05:53 10° S 01:09:59 34° ESE 01:13:57 10° NE visible
22 Jan - 02:49:57 10° W 02:53:09 19° NW 02:56:19 10° N night (unlit)
22 Jan - 09:55:01 10° NNE 09:58:10 17° NE 10:01:28 10° E visible
22 Jan - 11:36:43 10° NW 11:41:32 57° WSW 11:46:51 10° S visible
23 Jan - 00:32:33 10° SSE 00:35:59 21° ESE 00:39:18 10° ENE visible
23 Jan - 02:15:00 10° WSW 02:18:54 29° WNW 02:22:44 10° N visible
23 Jan - 09:22:14 10° NNE 09:23:48 11° NE 09:25:26 10° ENE visible
23 Jan - 11:02:31 10° NNW 11:07:26 87° WSW 11:12:53 10° SSE visible
23 Jan - 23:59:57 10° SE 00:02:01 13° ESE 00:04:02 10° E visible
24 Jan - 01:40:24 10° SW 01:44:43 46° WNW 01:48:54 10° NNE visible
24 Jan - 10:28:28 10° NNW 10:33:19 61° ENE 10:38:39 10° SE visible
24 Jan - 12:13:29 10° WNW 12:16:05 14° WSW 12:18:49 10° SW daylight
25 Jan - 01:06:04 10° SSW 01:10:34 77° WNW 01:14:55 10° NNE visible
25 Jan - 09:54:33 10° N 09:59:09 40° ENE 10:04:11 10° SE visible
25 Jan - 11:38:16 10° WNW 11:42:06 22° WSW 11:46:13 10° SSW visible
26 Jan - 00:32:02 10° SSW 00:36:29 64° ESE 00:40:47 10° NNE visible
26 Jan - 02:18:27 10° WNW 02:20:00 12° NW 02:21:31 10° NNW visible
26 Jan - 09:20:48 10° N 09:24:57 27° ENE 09:29:26 10° ESE visible
26 Jan - 11:03:35 10° NW 11:08:05 33° WSW 11:12:58 10° S visible
